Theta_e
322 326 329 331 336 338 333 329 328 326 329 332 331 332 331 333 333 331 331 328 327 332 331 327 328 329 329 328 327 326 326 327 328 328 329 330 330 330 330 330 329 328 328 328 328 327 326 325 325 324 322 320 316 312 311 311 313 314 316 317 318 318 318 318 317 317 316 315 315 315 314 313 313 313 313 313 312 312 312 311 308 307 306 305 305 305
321 325 328 327 329 336 333 327 327 328 328 330 332 332 331 333 333 329 331 330 327 330 329 327 329 329 328 328 327 326 326 326 328 328 329 329 330 330 330 329 328 327 326 326 327 326 325 325 324 322 320 317 315 313 313 312 312 312 312 313 315 317 317 316 316 315 314 314 314 314 313 313 313 313 313 312 312 311 311 309 307 305 304 303 303 303
322 326 326 322 322 328 327 326 328 327 328 330 331 332 333 332 331 328 329 331 329 331 330 328 329 329 328 328 327 326 327 326 328 329 329 330 330 330 330 330 328 326 326 326 326 326 325 324 322 321 319 316 315 315 314 312 312 312 311 311 313 314 314 314 314 313 313 313 314 313 313 313 313 313 313 312 311 311 310 309 307 306 304 303 303 303
324 328 325 319 322 327 326 326 328 327 328 330 331 334 333 329 331 332 330 330 330 330 331 329 330 330 329 329 327 326 327 327 327 328 329 330 330 330 330 329 328 326 325 326 326 325 324 323 322 320 318 316 316 316 314 313 313 313 312 312 312 312 311 310 311 312 313 314 313 313 313 313 313 313 312 312 310 310 309 309 308 305 304 303 304 304
325 324 319 319 325 329 328 327 329 331 331 328 330 337 335 330 332 333 330 330 329 329 330 330 332 332 330 330 329 326 326 327 327 327 329 329 329 330 330 329 329 327 325 326 326 325 324 322 321 319 317 317 317 316 314 314 314 313 313 312 312 312 311 310 310 312 313 314 314 314 313 313 313 312 312 311 310 308 308 308 307 305 304 304 304 305
324 320 319 325 327 326 328 329 328 332 334 329 330 335 333 330 332 331 330 331 333 333 331 330 334 335 331 330 331 328 328 329 327 326 327 328 329 329 330 329 328 327 326 325 325 324 323 322 321 319 318 318 317 316 315 315 315 315 314 313 313 313 313 312 312 311 311 311 312 312 312 312 312 311 310 310 308 306 306 307 306 305 304 305 305 306
324 318 321 328 327 326 328 329 327 330 335 334 332 331 329 330 331 330 331 334 336 334 330 330 335 336 333 331 331 330 330 330 327 325 326 327 328 329 329 330 329 327 326 326 325 324 323 322 320 318 318 318 318 317 315 315 315 315 315 314 314 314 314 314 313 313 311 310 310 310 310 310 310 310 309 309 308 308 307 307 306 305 305 306 307 308
321 318 322 327 326 327 329 330 328 328 335 336 330 328 329 330 329 329 333 334 333 329 328 331 331 333 337 333 329 329 331 331 329 327 326 325 327 328 329 330 329 328 327 326 325 324 323 322 320 318 319 318 318 317 315 315 315 316 316 315 315 315 314 314 314 314 313 312 312 311 311 310 310 309 309 310 310 310 310 309 307 305 306 307 308 309
319 321 325 326 326 328 331 331 326 327 334 331 324 326 328 328 329 331 334 333 331 331 332 332 328 332 340 335 327 327 330 331 331 329 327 325 326 327 328 329 329 329 327 326 325 324 323 322 320 319 319 319 318 317 316 315 315 316 316 316 315 315 315 315 315 314 314 313 313 313 312 311 310 310 310 311 311 310 310 309 308 306 307 308 309 310
317 320 323 325 329 330 328 326 323 328 333 326 323 326 326 327 331 334 335 334 333 335 336 333 330 334 341 337 328 328 331 330 329 329 326 325 326 327 327 328 329 329 328 327 325 324 324 322 320 319 319 319 318 318 316 315 316 316 317 317 316 316 316 315 315 315 315 314 314 314 313 312 311 311 311 311 311 311 310 310 309 309 309 310 310 310
319 319 320 323 326 325 323 322 323 327 327 325 326 327 327 332 334 334 336 334 332 337 338 332 330 332 337 339 332 329 332 330 328 328 327 325 326 327 327 327 328 329 328 327 326 324 324 322 320 319 319 319 318 318 316 315 316 316 317 317 317 316 316 316 316 316 315 315 314 314 314 313 313 312 312 312 312 311 310 310 310 310 310 310 310 310
322 321 321 321 321 321 323 324 324 325 325 327 332 330 331 334 333 334 336 334 335 339 335 328 327 328 333 340 335 328 329 329 327 328 327 326 326 326 327 328 328 329 329 327 326 324 324 322 320 320 320 319 319 318 316 314 315 316 317 317 317 317 317 316 316 316 316 315 315 314 314 314 314 313 312 312 312 311 311 310 310 311 311 311 311 311
326 324 322 320 321 322 325 328 325 326 328 328 331 334 335 333 334 339 336 333 338 336 329 327 329 330 333 337 334 329 328 327 326 326 326 325 326 327 327 327 328 329 328 327 326 325 324 322 321 321 321 319 319 318 316 314 315 316 317 317 318 318 317 317 317 317 317 316 316 315 315 315 314 314 313 313 312 312 312 311 311 311 311 311 311 311
330 327 324 321 322 322 324 331 330 329 330 328 329 334 338 337 338 342 336 329 332 332 328 327 330 334 335 332 331 332 326 323 323 324 325 326 326 327 328 328 329 329 328 327 326 325 324 323 323 323 322 320 319 318 316 314 314 316 317 317 318 318 318 317 317 317 317 317 316 316 316 315 315 315 314 313 313 312 311 311 311 311 311 311 311 311
329 326 327 323 323 323 323 328 330 329 328 328 330 330 334 340 339 336 335 332 329 330 330 327 330 337 337 329 327 326 322 321 322 324 325 326 326 327 328 327 328 328 328 327 326 325 325 324 324 324 322 320 318 317 315 314 315 316 317 317 318 318 318 318 318 318 318 317 317 317 316 316 315 315 315 314 313 312 311 311 311 311 311 311 311 312
323 325 332 323 320 323 323 323 324 327 328 326 326 327 328 335 336 328 327 331 330 332 336 333 332 336 333 328 326 323 322 322 323 325 326 326 326 327 327 327 328 328 327 326 326 326 325 324 325 325 323 318 316 316 314 314 315 316 317 317 318 318 318 318 318 318 318 318 318 318 317 317 316 316 316 314 314 313 312 311 311 311 311 311 312 311
322 327 331 322 319 322 323 323 322 325 331 328 324 329 328 326 334 331 322 324 326 330 335 332 333 336 330 326 329 329 330 327 325 326 325 326 327 326 327 327 327 328 327 326 326 326 326 325 325 326 323 317 314 315 314 315 316 316 317 317 318 318 318 318 318 318 318 318 318 318 318 318 317 317 316 315 314 313 313 312 311 311 311 311 312 311
329 331 328 323 321 321 320 322 322 321 327 332 329 331 327 319 328 333 327 329 329 329 334 330 332 337 332 329 332 334 335 330 327 327 325 325 327 326 327 327 328 328 327 327 326 326 326 326 326 326 324 317 314 315 315 315 316 316 317 317 317 318 318 318 319 318 318 318 318 318 318 318 318 317 317 316 315 314 313 312 312 312 312 312 312 312
328 329 326 323 321 322 323 324 325 322 321 329 329 325 323 324 330 330 328 333 330 326 332 333 330 332 333 337 335 334 339 335 329 328 326 325 326 326 327 327 327 328 327 326 326 326 326 327 326 327 325 318 314 315 316 316 316 316 316 317 318 318 319 318 319 319 319 318 318 318 319 319 318 318 317 317 316 315 314 313 314 313 313 313 313 312
328 326 324 324 320 321 326 326 329 329 322 321 323 322 326 332 334 328 326 330 328 327 331 332 332 333 336 341 338 335 342 338 330 331 329 325 325 326 327 327 327 327 327 327 327 327 327 327 327 327 326 321 315 315 317 316 317 317 317 317 317 318 318 319 319 319 319 319 319 319 319 319 319 319 318 317 316 316 314 314 314 314 313 313 313 313
327 322 322 325 323 322 327 328 330 334 328 323 325 326 326 327 325 325 325 325 326 331 334 330 331 341 340 336 335 338 342 335 331 331 328 324 325 327 327 328 328 327 327 328 328 328 327 328 327 327 327 324 318 315 316 317 317 318 318 317 318 318 318 319 319 319 319 319 319 319 319 319 319 319 319 318 317 316 316 315 314 314 314 314 314 313
325 326 328 325 323 327 331 329 327 329 330 331 332 331 331 331 328 326 327 327 325 328 333 329 327 339 341 332 334 340 335 328 325 327 325 324 325 327 327 328 328 328 328 328 328 328 328 328 328 327 327 325 321 317 316 317 317 318 318 318 318 318 318 318 319 319 319 319 319 319 319 319 319 320 319 318 317 316 316 315 315 315 315 314 314 314
324 333 333 326 327 331 326 319 317 320 326 328 327 329 332 334 334 330 328 330 326 322 326 326 325 337 340 329 329 331 325 321 322 323 324 325 326 327 327 328 328 328 328 328 329 328 328 328 328 327 327 326 324 320 317 317 317 317 318 318 318 318 318 318 319 319 319 319 319 319 319 320 320 320 319 319 318 317 316 316 315 315 315 315 314 314
325 331 328 328 338 337 327 322 319 319 325 324 321 324 326 329 334 335 333 332 327 325 328 326 326 339 339 323 320 322 320 321 323 323 325 325 326 327 326 328 328 328 328 328 328 329 328 328 328 327 327 326 325 323 319 318 318 318 318 318 318 319 319 319 319 319 319 319 319 320 320 320 320 319 319 319 318 317 317 317 316 315 315 315 314 314
322 326 327 328 334 333 330 332 331 327 328 326 324 322 323 329 333 329 329 328 324 328 333 328 328 340 339 326 323 324 323 323 322 323 325 325 325 327 326 327 328 327 328 328 327 328 328 328 328 327 326 326 326 325 322 319 318 318 318 318 318 319 319 319 319 319 319 319 319 319 320 320 320 319 319 319 319 318 318 317 316 316 315 315 314 313
322 330 336 332 329 329 329 335 339 335 328 323 325 322 322 329 330 324 325 326 323 325 327 328 333 338 337 332 330 330 330 329 326 323 325 325 326 327 327 327 328 327 328 328 328 328 328 328 328 327 327 326 326 325 323 320 319 319 319 319 319 319 319 319 319 319 319 319 319 319 320 320 319 319 319 319 319 319 318 318 317 316 315 314 313 313
330 332 341 341 334 333 337 339 336 331 325 321 323 323 324 328 329 326 326 327 329 329 329 335 336 332 336 339 335 334 333 334 329 324 324 326 325 326 327 327 328 328 328 328 328 328 328 328 327 327 327 326 326 325 323 321 319 319 319 319 319 319 319 319 319 319 319 319 319 319 320 320 320 319 319 319 319 319 319 318 317 315 314 313 312 312
335 326 330 337 335 335 339 338 328 323 322 324 325 323 325 328 327 327 327 326 328 327 331 341 336 328 336 342 338 338 337 334 329 324 324 326 326 326 327 327 327 328 328 328 328 328 328 327 327 327 326 326 325 325 323 321 320 319 319 319 319 319 319 319 319 319 319 320 320 319 320 320 320 320 319 319 319 319 318 317 315 314 313 312 311 309
342 327 322 327 331 333 334 333 330 326 323 327 329 326 327 329 328 326 328 331 328 324 329 337 333 332 342 344 339 337 333 330 327 324 325 326 326 326 327 327 327 327 327 328 328 328 328 327 327 327 326 326 325 324 323 322 321 320 320 319 319 319 319 319 319 319 319 319 319 319 320 320 320 320 320 319 318 318 317 316 314 313 312 311 309 306
334 330 325 325 325 328 330 329 331 329 323 324 329 330 330 332 331 327 328 331 328 324 330 334 333 338 343 339 336 329 323 323 324 324 326 326 326 327 326 327 327 327 327 328 328 328 328 327 327 327 326 326 325 324 323 322 321 321 320 320 320 319 319 319 319 319 319 319 319 320 320 320 320 320 319 318 317 317 315 314 313 312 310 308 305 303
322 324 327 329 327 327 332 333 333 330 324 321 327 333 330 327 326 324 326 330 326 323 331 333 333 341 337 325 322 322 321 323 324 324 326 327 326 327 327 327 328 327 328 328 328 328 327 327 327 326 326 325 324 324 323 322 322 321 321 321 320 320 320 320 320 319 319 320 319 320 320 320 320 320 319 317 316 315 313 312 311 310 308 305 303 301
329 325 326 333 329 325 329 332 336 336 327 323 329 335 331 326 327 327 327 330 329 329 334 329 328 341 338 322 319 322 321 323 323 324 325 326 327 327 327 328 328 327 328 327 327 328 327 327 327 326 326 325 325 324 323 323 322 321 321 321 321 321 320 320 320 319 319 320 319 320 320 320 319 319 317 316 314 313 312 311 310 307 305 303 302 300
338 334 328 328 327 325 327 331 337 340 333 330 335 336 331 331 333 328 325 328 330 333 336 329 328 338 333 324 328 329 323 322 323 325 326 326 327 327 327 328 327 327 328 327 327 327 326 326 326 325 326 325 324 324 323 323 323 322 322 321 321 320 320 320 320 319 320 320 320 320 320 319 319 317 315 314 313 312 311 309 307 305 303 302 301 297
338 343 333 326 324 325 332 334 332 330 331 335 338 335 330 328 329 328 328 332 332 332 334 330 330 333 328 327 335 334 327 326 325 325 326 326 327 327 327 327 327 327 327 326 326 326 326 326 326 325 326 325 325 325 324 323 323 322 322 322 320 320 320 320 320 320 320 320 320 320 320 319 317 315 314 313 312 311 309 307 305 303 302 301 299 295
342 343 333 326 323 326 336 338 329 325 334 341 336 328 324 323 325 328 333 337 334 331 332 332 331 332 326 324 327 326 325 326 325 325 327 326 326 327 327 326 327 326 326 326 326 325 325 325 326 325 326 325 325 324 324 323 323 322 322 321 320 320 320 320 320 321 320 320 320 320 318 317 315 313 313 312 311 309 307 305 303 302 302 300 296 293
342 340 332 327 321 321 329 333 330 330 337 340 330 322 320 321 323 324 327 338 343 335 330 334 335 329 320 318 321 323 323 324 324 325 326 326 326 327 326 326 326 325 325 325 325 325 325 325 325 325 325 325 325 325 324 323 323 322 322 320 320 320 321 320 320 320 320 320 319 318 316 315 313 313 312 312 309 307 304 303 302 301 300 298 294 292
334 338 336 326 319 322 328 330 332 330 329 335 333 324 321 324 329 329 326 336 348 334 323 330 337 326 317 318 322 322 322 324 325 326 326 326 326 326 326 326 325 324 325 325 325 326 325 325 325 325 325 325 325 325 324 323 323 322 321 320 321 321 320 320 320 320 319 318 316 315 314 313 313 312 312 309 307 305 303 302 301 301 299 296 293 291
326 330 334 326 319 325 329 325 325 323 325 339 344 329 321 321 325 328 327 331 337 324 315 325 336 325 316 318 320 320 323 327 330 330 327 325 326 326 326 325 325 325 325 325 325 325 324 323 323 323 324 324 325 325 324 323 322 321 321 321 321 320 319 319 318 318 317 315 315 314 313 312 312 312 310 307 305 303 302 301 300 300 298 295 292 291
328 329 336 331 321 323 326 321 320 322 328 341 344 331 320 317 318 323 328 332 330 318 313 321 325 319 316 318 319 321 326 332 335 331 326 325 326 326 325 325 325 325 325 324 323 322 321 320 320 322 324 324 324 324 323 322 321 321 321 320 319 318 318 317 317 316 315 314 314 313 312 312 312 310 307 305 303 302 302 301 300 299 297 294 291 291
331 331 333 330 324 324 327 324 324 325 325 330 335 329 319 317 320 323 328 336 330 316 315 320 320 318 319 319 319 323 328 334 334 327 323 325 326 325 325 325 325 325 324 322 320 319 318 319 319 322 324 324 323 323 322 321 321 320 318 318 317 316 316 316 315 315 314 314 313 313 313 312 311 308 305 304 303 302 301 300 299 298 296 293 291 291
327 329 328 330 331 327 322 320 323 328 330 328 326 323 316 316 322 326 330 335 327 316 317 319 319 321 321 319 320 324 326 327 326 323 322 324 324 324 325 324 324 323 321 319 318 318 319 320 321 322 323 322 321 321 320 319 318 316 316 315 315 315 315 315 315 314 313 313 313 313 313 311 308 306 304 303 302 301 301 300 299 298 295 292 291 290
325 326 323 324 326 326 326 326 324 324 326 323 321 318 315 318 327 332 330 324 319 319 321 320 319 322 322 321 322 323 323 323 323 322 321 321 323 324 324 323 323 321 320 319 318 318 319 321 322 321 321 320 319 318 317 316 315 314 314 314 315 315 314 314 314 313 313 313 313 313 311 309 306 304 303 302 302 301 301 300 299 297 294 291 291 290
326 325 326 324 323 323 325 326 326 328 325 321 320 321 318 321 329 330 323 318 319 322 323 320 320 321 321 322 323 322 322 322 321 321 320 321 323 323 323 323 322 320 319 319 318 319 320 321 320 319 318 317 315 315 314 314 314 314 314 314 314 314 314 314 314 313 313 313 313 311 309 306 304 303 303 302 302 301 300 300 299 296 293 291 290 290
323 324 329 329 328 329 328 328 332 334 328 321 322 326 324 322 323 321 319 320 322 321 321 322 321 321 321 322 323 322 321 321 320 320 321 321 322 323 322 322 321 320 319 318 318 320 320 319 318 316 315 314 314 314 314 314 314 314 314 315 314 314 314 314 313 313 313 313 312 310 307 305 304 303 303 302 302 301 301 300 298 295 292 291 290 290
322 323 326 326 328 332 335 334 328 322 320 320 322 325 324 320 320 321 320 321 322 321 322 322 321 321 322 322 322 322 321 321 320 320 320 321 322 322 322 321 320 319 319 318 318 319 319 317 316 315 314 314 314 314 314 314 314 314 314 315 315 314 314 314 313 313 313 312 310 308 305 304 303 303 303 302 302 301 300 299 297 294 292 291 290 290
318 316 319 323 327 325 323 324 320 317 321 324 322 322 323 321 321 321 319 320 322 322 322 321 321 322 322 321 322 322 322 321 320 320 320 321 322 322 322 321 320 319 318 318 318 318 317 316 315 315 315 315 314 314 314 314 314 315 315 315 315 314 314 314 314 313 312 311 309 306 304 304 303 303 302 302 302 301 300 299 296 293 292 291 290 290
320 315 319 324 327 326 327 331 327 321 322 324 323 324 325 323 322 321 320 321 322 322 322 322 322 322 322 322 322 321 321 321 320 320 320 321 321 322 321 321 320 319 318 317 317 317 316 316 316 315 315 315 315 315 315 314 315 315 316 316 315 315 314 314 313 313 312 310 308 305 304 303 303 302 302 302 301 301 300 298 295 293 292 291 290 290
323 319 323 325 325 328 330 329 325 320 320 323 324 325 324 323 324 323 321 321 322 322 323 322 322 323 323 322 322 321 321 321 320 320 320 320 321 322 321 321 321 319 317 317 316 316 316 316 316 316 316 317 316 315 314 315 315 316 316 316 315 315 314 314 313 312 311 309 306 304 303 303 303 302 302 302 301 301 299 297 295 293 292 291 290 290
318 319 322 322 327 334 328 321 321 324 326 324 322 324 324 323 325 324 322 323 323 323 324 323 323 323 323 322 322 321 320 320 320 320 320 320 321 321 321 321 321 318 317 317 316 316 316 316 316 316 316 317 317 315 315 315 316 316 316 315 315 314 314 313 312 311 310 307 305 304 303 303 302 302 302 302 301 300 299 297 295 293 292 291 291 290
319 325 323 320 330 339 332 323 322 326 327 324 322 324 324 322 324 324 323 323 322 323 324 324 323 323 322 322 322 321 320 321 320 320 320 320 320 321 321 321 320 318 317 317 316 316 316 316 316 316 316 317 318 317 316 315 316 316 316 315 314 314 313 313 312 311 310 307 304 304 304 303 302 302 302 301 301 300 299 296 294 293 292 291 291 290
320 324 325 327 334 334 327 323 321 321 323 323 322 323 323 323 324 324 323 323 322 323 324 323 323 323 322 321 321 321 321 321 321 320 321 320 320 321 321 321 321 319 317 317 317 317 316 316 317 317 316 317 318 318 317 317 316 315 315 314 314 314 313 312 312 311 309 306 304 304 304 303 302 302 301 301 300 299 298 296 294 293 292 291 291 291
Wind_Speed
4 2 2 3 5 7 7 6 4 3 8 9 6 4 4 3 0 1 0 1 2 4 3 2 6 6 6 4 4 6 7 6 9 9 9 10 12 15 14 13 11 10 9 8 7 6 4 3 2 1 1 3 4 5 6 4 3 3 3 3 4 6 5 3 2 2 3 3 4 5 6 8 8 8 9 10 10 10 11 11 11 10 10 10 9 9
4 3 7 7 6 7 6 6 6 7 9 7 6 5 2 2 0 1 1 0 0 3 1 2 6 5 4 3 4 7 6 6 9 10 10 11 12 14 14 13 12 11 11 10 8 8 6 5 4 3 1 2 5 8 9 8 6 5 5 4 5 6 5 3 3 3 3 4 4 5 6 7 7 7 8 9 9 9 9 10 10 11 12 13 14 14
1 5 10 5 7 7 6 7 8 8 7 6 4 5 2 1 1 2 2 2 2 2 1 2 5 2 2 2 4 8 7 6 11 12 11 13 14 15 15 14 14 12 12 11 10 10 8 6 6 4 1 2 6 9 10 10 10 9 8 7 6 5 4 3 2 3 3 4 4 5 5 6 6 6 8 9 9 8 9 9 10 12 14 15 17 18
2 6 7 6 12 10 7 6 9 7 5 4 4 5 3 3 2 0 2 3 3 3 3 3 4 2 3 0 2 8 10 7 10 12 12 14 15 16 16 15 14 13 13 12 12 11 9 8 6 4 2 3 6 9 10 10 11 11 10 9 9 8 8 7 5 5 5 5 4 5 5 5 5 7 8 9 10 9 8 9 10 13 15 16 17 18
6 5 4 9 9 10 9 6 8 7 2 1 3 5 4 5 3 3 2 1 4 3 3 5 4 4 2 2 3 4 7 7 9 12 14 15 16 15 15 15 15 14 13 12 11 11 10 8 6 5 4 4 5 7 9 9 10 11 12 12 12 12 12 11 9 7 6 5 4 4 4 5 5 6 7 9 11 10 9 10 11 14 16 16 16 17
8 5 9 9 5 9 10 6 6 7 4 1 3 4 6 6 5 6 5 3 4 3 1 4 4 4 3 3 5 2 3 6 7 11 15 17 17 16 17 17 17 17 14 12 11 11 10 9 7 7 6 4 4 6 8 8 9 10 12 12 12 12 13 13 13 11 9 7 6 5 5 5 5 6 8 11 13 12 12 12 13 14 15 15 15 16
3 2 7 7 6 7 7 5 5 6 7 1 5 6 8 7 8 8 5 3 2 1 2 4 4 3 4 3 7 4 4 6 6 9 15 19 20 20 21 20 19 20 18 15 13 12 12 11 10 9 8 5 3 5 7 7 7 8 9 10 10 10 10 12 14 14 14 13 11 10 9 8 8 9 11 13 14 15 14 13 13 14 15 15 16 16
2 4 5 6 6 5 4 3 5 7 8 2 4 9 10 8 9 7 5 3 2 2 2 3 4 1 2 5 5 6 7 6 6 8 12 18 22 23 24 22 22 22 21 19 17 15 15 13 11 10 8 5 3 4 5 6 6 6 6 7 8 8 8 10 12 14 15 16 16 15 14 12 11 12 13 15 17 17 15 13 13 13 13 14 16 17
2 4 6 7 5 4 4 4 8 9 5 1 3 10 9 7 7 5 5 3 1 2 2 3 2 2 3 5 2 4 6 7 9 10 10 16 22 24 25 25 24 24 23 22 19 17 16 14 12 9 7 5 4 3 3 4 4 4 4 5 6 6 6 7 9 12 14 15 16 17 16 15 15 15 16 17 18 18 17 16 16 15 14 15 16 16
2 2 9 10 5 5 3 2 9 8 4 4 9 11 8 6 5 4 4 3 2 3 2 5 3 2 4 4 1 2 4 9 11 9 10 17 22 24 27 27 26 25 25 24 21 18 16 14 11 9 8 7 4 3 2 2 3 3 2 3 4 4 5 6 7 9 11 12 13 15 16 16 16 16 16 17 18 18 18 18 18 18 16 16 16 15
3 2 8 7 3 5 5 6 6 8 10 11 10 9 7 4 3 3 2 3 3 2 4 5 5 4 2 4 3 4 5 9 10 7 9 15 21 24 27 28 28 27 27 26 23 20 17 14 12 10 10 8 6 5 4 3 3 2 1 1 1 3 4 5 6 7 8 9 11 12 13 14 15 16 16 16 16 17 16 16 16 16 15 15 14 14
5 5 2 1 6 10 11 9 7 8 11 8 5 6 5 3 3 3 3 3 3 2 5 3 4 5 1 5 4 6 6 5 8 9 10 14 20 25 27 29 29 28 27 27 25 22 19 17 14 13 11 10 8 8 6 5 5 4 2 2 1 1 2 3 4 5 6 6 8 9 11 12 13 15 15 15 15 15 15 14 14 14 14 14 13 13
4 1 2 1 8 11 10 7 5 4 4 5 5 5 4 2 3 3 3 2 1 3 4 2 5 2 4 7 6 9 9 7 9 12 15 20 24 26 28 29 29 28 28 28 27 24 22 20 16 13 12 11 10 9 7 7 7 5 4 3 3 2 1 2 2 3 4 5 5 7 9 10 11 13 14 14 14 14 13 12 12 12 13 12 12 13
3 5 2 3 3 4 6 7 4 1 1 5 6 4 3 3 3 2 3 2 1 3 3 2 4 1 4 5 6 9 11 13 16 17 19 25 29 30 31 31 30 29 29 29 28 25 23 21 17 13 11 10 9 9 8 8 7 6 6 5 3 3 3 3 2 2 3 4 4 5 6 8 10 11 12 13 13 13 13 11 10 11 11 10 11 13
1 4 2 2 2 4 3 4 7 6 4 4 3 5 4 4 3 2 3 1 2 2 3 3 1 2 2 3 5 6 9 10 14 16 17 21 27 29 30 29 29 29 30 30 28 26 23 21 18 13 10 9 8 8 9 9 9 8 7 6 4 4 4 5 4 4 3 4 5 5 6 7 8 9 10 11 11 11 11 10 9 9 9 10 12 14
3 3 6 3 1 5 4 3 6 6 4 1 2 4 1 3 4 1 1 4 3 1 2 2 2 4 4 4 4 5 5 1 8 14 15 17 20 23 26 29 30 30 31 31 29 26 24 22 19 14 10 8 8 8 9 10 10 9 7 6 5 4 5 6 6 6 5 5 5 5 6 6 7 8 9 9 10 10 10 9 8 8 8 10 12 13
2 4 6 2 3 0 4 6 5 4 4 2 2 2 4 3 6 4 1 0 3 2 2 2 3 4 3 3 5 6 6 5 7 11 15 17 20 23 26 29 31 31 31 31 30 27 24 23 20 16 11 9 10 10 10 10 9 8 7 6 6 5 6 6 6 6 6 6 6 6 6 7 7 7 7 7 8 8 8 8 7 8 8 10 11 13
4 2 6 2 4 3 3 9 5 3 6 4 2 5 3 2 4 4 2 3 4 0 3 2 3 5 2 2 5 5 4 2 4 7 11 16 20 23 27 30 31 32 31 31 30 27 25 23 21 18 13 11 11 11 11 10 8 7 7 7 6 6 6 6 7 7 8 8 8 7 7 7 8 7 7 7 6 7 7 7 8 9 10 11 13 15
4 0 6 1 3 2 3 8 4 4 3 4 4 3 3 2 0 1 1 0 1 1 3 3 4 3 3 3 3 1 3 4 4 5 7 12 19 23 26 29 31 31 31 31 30 28 26 24 22 20 16 13 12 12 11 10 9 8 7 7 6 6 6 6 8 9 10 10 10 9 8 8 9 9 8 7 7 7 7 7 9 10 11 13 15 16
3 2 3 3 0 1 3 4 2 3 3 3 3 2 2 2 3 1 1 2 1 1 2 3 4 3 5 5 5 7 8 7 7 6 7 13 21 25 26 28 30 30 31 31 30 29 27 25 23 21 18 15 13 13 12 12 11 9 7 7 7 7 7 7 9 10 11 11 11 10 9 9 9 9 9 8 7 8 7 8 10 12 13 15 16 18
3 3 2 4 4 1 0 2 5 5 2 1 2 1 1 1 2 1 1 1 2 2 2 1 3 5 6 4 6 8 8 8 10 9 9 15 23 25 27 29 30 31 32 31 30 29 27 25 23 22 19 17 15 14 14 14 13 11 9 8 8 8 8 9 9 10 11 11 11 11 10 10 9 10 10 10 9 9 9 10 12 14 15 17 18 19
2 3 2 1 2 1 4 5 5 7 6 4 4 3 3 3 3 2 2 3 1 2 3 2 2 6 5 3 5 6 6 8 12 12 11 18 24 25 26 28 29 30 31 30 29 28 27 25 23 22 21 19 17 16 17 16 15 13 12 10 10 10 10 9 10 10 11 11 12 12 10 10 10 9 10 10 11 11 11 13 15 16 18 19 20 20
3 4 3 1 3 5 6 3 1 5 5 5 3 3 4 3 4 5 2 4 0 1 1 2 1 6 5 3 4 6 6 8 13 15 15 18 23 24 25 26 27 29 28 28 28 27 26 24 22 22 21 21 20 18 18 18 17 16 14 12 11 11 10 10 10 11 12 12 12 12 11 10 10 10 11 11 12 13 14 15 16 17 19 20 20 19
2 3 3 1 4 4 4 4 3 3 6 5 0 1 4 2 3 5 5 3 3 2 2 1 2 5 5 4 4 6 6 6 11 14 15 17 20 22 24 25 26 27 27 27 27 26 25 24 23 23 22 22 22 20 19 19 19 18 16 14 13 12 11 11 11 11 12 12 12 12 11 10 10 11 12 13 14 15 16 17 18 18 19 20 19 17
2 1 3 2 4 5 6 6 5 4 2 2 1 1 2 4 6 4 2 3 1 3 4 3 3 6 5 4 3 1 2 4 8 12 14 15 18 20 23 24 24 25 26 27 26 26 26 25 24 23 22 22 22 21 20 20 20 19 17 15 14 13 12 12 12 12 12 12 12 12 11 11 11 11 12 14 15 17 18 19 20 19 19 18 16 15
5 1 4 5 3 1 2 2 3 2 1 1 1 1 2 4 6 3 1 3 1 3 4 4 5 6 6 4 5 3 2 3 5 9 12 14 16 19 22 23 24 25 25 26 26 25 25 24 24 22 22 21 21 21 21 20 20 19 18 17 15 14 14 14 14 13 13 13 13 12 11 12 12 11 13 16 17 18 20 20 20 19 17 15 14 14
4 2 3 6 6 7 6 6 5 2 2 1 1 1 2 3 5 5 3 1 3 3 2 5 6 3 7 6 3 2 2 3 4 8 12 14 16 18 21 22 23 23 24 24 24 24 24 24 23 22 22 21 21 21 21 20 20 19 18 18 16 15 15 16 16 16 15 16 15 13 13 14 14 13 15 17 18 19 20 19 18 16 14 12 13 14
4 1 2 5 6 7 7 5 1 2 2 3 2 2 2 3 5 5 3 3 4 3 4 7 5 3 6 7 5 6 5 5 6 10 15 17 18 19 20 21 22 23 23 24 24 25 25 23 22 22 22 21 21 21 21 20 19 19 18 17 15 15 15 16 17 18 17 18 18 16 14 14 15 16 16 17 18 19 18 17 15 14 12 12 14 16
6 1 2 3 2 3 4 2 0 2 1 2 4 5 4 4 5 4 5 5 7 5 6 6 5 5 7 7 7 8 8 9 10 13 16 16 17 18 18 20 22 22 23 24 24 25 24 23 22 21 21 20 21 22 21 20 19 18 17 17 15 15 15 16 17 18 18 19 20 17 15 14 16 18 18 18 18 17 16 15 13 11 11 12 15 16
4 1 1 2 3 4 3 1 1 3 1 1 2 3 3 5 7 5 4 4 6 5 5 4 5 7 8 7 8 7 8 9 8 10 13 15 16 17 18 20 21 22 22 22 22 23 22 21 21 20 20 20 20 21 20 19 17 16 16 16 16 16 17 18 18 18 17 19 20 18 16 15 17 19 19 18 17 15 14 12 10 10 11 14 15 15
3 1 1 3 3 5 6 5 3 3 3 1 4 4 1 2 3 3 2 3 3 3 3 3 2 7 7 6 6 4 5 8 8 10 14 15 17 18 18 19 20 20 20 20 20 21 20 20 20 21 20 20 20 20 20 19 17 16 16 16 17 18 19 20 20 18 17 18 19 17 15 16 18 19 18 16 14 13 11 9 9 11 13 14 14 14
4 2 1 4 4 4 5 6 5 4 6 2 7 6 2 3 3 3 3 4 5 4 2 1 1 5 6 4 2 3 7 10 10 13 15 15 17 18 19 19 19 19 19 19 20 20 20 20 20 21 20 20 20 20 20 19 18 16 16 16 18 19 17 18 19 18 17 17 17 16 15 17 19 18 16 14 13 11 9 8 10 12 13 13 13 13
3 4 1 3 2 4 5 4 3 4 7 4 7 5 6 5 4 4 4 4 6 6 5 3 5 6 5 3 3 2 4 7 10 14 15 16 17 19 19 18 18 18 19 19 20 20 20 21 20 20 19 18 19 20 19 19 18 17 17 17 18 16 15 16 17 16 16 15 15 15 16 18 18 16 15 13 10 8 8 9 11 11 11 11 11 12
3 5 2 2 2 4 7 5 4 5 3 5 6 6 7 6 6 6 6 6 6 4 3 4 5 4 3 5 6 7 8 10 13 15 15 16 17 18 19 19 18 18 18 18 20 20 20 21 21 21 20 19 18 19 19 19 19 18 19 18 16 14 15 16 16 15 15 14 14 15 17 18 17 15 13 11 8 8 9 10 10 10 10 10 10 11
4 4 2 1 3 1 3 5 5 1 6 8 5 2 5 6 7 7 7 7 7 7 6 6 7 6 7 10 10 11 14 13 14 15 16 16 18 18 18 19 19 19 20 20 20 20 20 20 21 21 21 20 19 19 19 19 18 17 18 16 14 15 15 15 15 15 14 14 15 16 17 17 16 13 11 8 7 8 8 9 9 9 9 9 10 10
5 4 2 2 2 0 2 4 2 5 8 7 5 2 3 2 3 3 5 8 7 8 7 7 8 7 8 10 8 7 10 10 10 14 17 18 19 19 19 20 19 19 20 20 19 18 18 18 20 21 21 22 21 21 20 19 18 16 16 16 15 15 14 14 14 14 15 15 16 17 17 16 14 11 8 7 8 8 8 8 8 8 8 9 10 10
7 4 2 3 1 1 2 1 2 4 8 7 5 1 4 2 4 6 2 8 8 8 10 9 6 5 6 8 6 4 5 4 3 11 18 20 20 22 21 21 21 20 19 19 18 18 18 19 21 22 22 23 24 23 21 19 18 17 16 16 15 14 13 14 15 15 16 16 16 17 16 14 11 8 7 7 7 7 7 7 7 7 8 9 10 10
5 2 4 3 0 2 4 1 3 3 4 6 7 6 3 3 5 7 4 5 8 9 13 11 6 6 8 7 7 7 6 4 2 10 19 22 22 24 23 23 23 21 18 17 17 16 16 16 17 18 18 19 22 22 21 19 18 17 16 15 15 14 14 15 16 16 16 16 17 16 14 11 8 7 6 6 6 6 6 6 6 7 9 10 10 10
7 4 4 4 1 2 4 1 2 2 5 7 8 7 3 2 6 5 6 5 8 8 14 13 8 10 12 13 15 12 7 3 4 13 20 23 24 25 25 25 23 19 15 13 12 12 12 13 12 11 10 13 17 19 19 18 18 16 15 14 14 15 15 16 16 16 16 17 17 15 12 9 7 6 6 6 6 5 5 4 6 8 9 10 9 9
6 5 4 3 2 2 3 2 2 4 5 6 7 6 1 4 5 6 5 7 7 5 11 17 15 15 16 17 17 12 5 6 8 12 16 20 23 24 24 23 20 16 14 13 11 10 10 9 7 6 8 13 17 19 18 17 16 14 14 14 14 15 15 16 16 17 17 17 16 13 10 7 6 7 6 6 5 3 3 4 6 9 9 9 8 8
3 4 2 3 3 3 3 1 3 5 6 6 6 4 6 5 4 5 2 8 6 7 6 17 19 18 19 20 18 13 13 17 15 10 9 14 20 22 19 16 15 15 14 13 11 9 8 7 6 8 12 16 18 18 17 15 14 14 13 13 13 14 15 16 17 18 18 16 14 11 9 7 6 6 5 4 3 2 3 5 7 9 9 8 7 7
1 1 1 2 2 3 3 1 2 4 5 4 3 5 7 3 1 4 6 5 6 7 5 12 18 19 20 23 23 20 19 21 18 12 8 11 17 18 17 17 18 18 15 13 11 9 9 11 14 15 17 18 17 16 15 14 13 13 12 11 12 13 15 17 18 18 17 15 12 10 8 7 6 5 4 3 2 2 4 6 8 9 8 7 6 6
4 2 1 2 3 3 2 2 1 3 5 7 11 6 3 4 3 3 2 4 6 7 6 8 15 18 20 23 25 23 19 16 16 14 10 12 16 18 20 22 21 19 16 14 12 12 13 16 18 18 17 16 15 14 14 13 11 10 9 10 12 14 17 19 19 18 16 13 11 8 7 6 6 5 3 3 2 3 5 7 8 8 7 6 5 5
3 3 2 2 3 4 2 1 4 4 5 13 13 4 4 9 6 2 5 6 8 7 6 6 10 15 19 22 24 23 20 16 14 13 12 15 19 21 23 23 21 19 17 15 14 16 17 18 19 18 16 14 14 13 12 10 9 8 9 10 13 16 18 19 19 17 15 12 9 7 6 6 6 5 4 2 2 4 6 7 8 7 6 5 4 5
4 4 4 2 3 5 5 6 7 6 6 12 18 11 4 5 9 7 5 8 8 6 5 5 6 10 15 19 22 23 22 19 15 13 14 19 22 24 25 24 21 20 18 17 18 19 19 18 18 17 15 14 13 12 11 10 8 8 9 11 14 17 19 19 18 16 13 10 8 7 7 7 6 5 4 3 3 5 6 8 8 6 5 4 4 5
2 3 4 2 2 4 5 7 8 9 9 9 18 19 11 6 7 8 9 9 8 6 6 4 3 5 9 14 19 20 22 22 18 13 16 22 25 26 26 24 22 21 20 21 22 22 20 18 17 16 15 14 14 12 11 10 9 9 10 12 15 17 19 19 18 15 12 10 8 8 8 7 7 6 5 4 4 6 8 8 8 6 4 4 4 5
1 3 2 0 1 1 2 5 5 6 9 8 10 17 19 16 12 9 8 9 8 8 8 7 6 5 6 9 13 15 18 22 20 16 17 24 27 28 27 26 24 24 23 24 23 23 22 20 18 17 17 16 15 14 13 13 12 11 11 12 14 17 18 18 17 14 11 9 8 8 8 7 7 6 6 5 6 8 9 8 7 6 5 5 5 6
0 1 1 1 1 1 5 8 8 10 11 10 8 12 15 17 17 15 11 9 10 10 10 10 9 8 8 9 10 11 14 18 19 18 19 23 28 29 28 27 26 25 25 25 24 23 23 21 19 19 18 17 16 16 15 15 14 14 13 13 14 17 18 18 16 13 11 9 8 8 8 8 7 7 6 7 8 9 9 8 7 6 5 5 6 6
3 1 2 2 0 3 4 7 9 11 9 8 10 11 13 14 16 17 14 12 12 13 13 12 12 12 12 11 10 11 12 14 16 17 19 23 27 29 29 28 27 27 27 26 25 24 22 21 19 19 18 18 17 17 17 17 16 16 16 14 15 17 18 17 15 13 11 9 9 9 8 8 9 8 8 9 10 10 9 9 8 7 6 6 6 7
1 2 2 3 2 3 4 5 6 4 5 11 14 13 12 13 14 16 17 15 14 15 16 15 15 14 14 13 12 12 13 13 13 15 19 22 24 27 29 29 29 28 27 27 26 24 23 21 19 19 19 19 19 19 18 18 18 18 17 16 16 16 17 17 15 13 12 11 10 9 9 10 10 10 10 11 11 11 10 9 8 8 7 7 7 7
3 3 4 4 2 4 6 8 6 2 7 13 15 14 12 11 11 12 16 18 17 17 17 17 17 16 15 13 13 12 13 14 14 15 18 20 23 25 27 28 29 29 28 28 27 25 24 23 22 21 21 20 21 21 21 20 20 19 19 18 17 17 16 16 15 14 13 12 11 10 10 11 11 12 12 12 12 12 11 10 9 8 8 8 7 8
Wind_Direction
167 140 212 225 198 199 212 185 161 129 120 122 116 112 136 133 332 261 277 281 131 81 23 101 128 151 162 152 177 186 183 173 169 178 174 168 181 185 180 178 175 172 168 165 168 169 174 174 164 172 63 2 21 51 52 50 65 97 123 142 134 126 131 132 114 81 61 60 66 71 66 58 57 59 53 48 42 32 27 25 24 26 30 35 38 37
182 215 247 234 201 183 174 148 123 105 108 107 113 117 86 84 216 298 91 120 44 72 42 135 129 152 180 169 181 181 188 199 187 186 184 180 189 193 190 185 178 173 171 173 176 178 183 186 184 183 154 30 63 69 59 54 61 75 97 126 133 131 136 124 90 69 68 80 84 73 60 58 64 65 52 41 35 29 24 24 28 33 38 47 57 61
165 244 255 217 133 126 121 119 112 102 103 101 113 120 90 146 158 1 29 9 10 93 159 153 124 147 250 197 188 187 191 208 202 200 196 192 195 198 199 193 183 179 178 180 185 184 186 192 189 187 170 97 85 69 59 61 64 69 82 97 108 114 118 100 70 62 78 93 86 65 51 52 59 60 51 37 31 29 25 30 37 38 44 55 63 64
203 254 257 155 128 117 110 114 108 95 89 100 124 127 151 198 153 63 301 351 24 100 142 129 102 3 312 305 215 208 205 213 212 212 213 206 204 205 206 202 195 194 190 189 193 192 193 198 200 200 184 129 90 66 64 67 64 66 76 86 90 84 73 66 58 65 85 93 79 63 52 48 50 54 47 32 28 28 27 35 39 39 49 59 63 62
237 245 140 125 131 123 121 129 121 114 89 104 157 144 158 191 181 162 174 54 31 35 104 109 62 331 287 202 245 229 210 223 223 215 221 221 216 214 214 213 211 210 207 201 199 200 201 204 207 208 190 147 93 71 71 73 68 67 73 81 85 80 72 68 61 60 74 83 74 58 47 41 38 39 31 22 25 29 30 36 37 42 53 61 64 62
260 223 139 122 127 131 132 149 155 141 128 206 217 173 146 153 145 126 119 78 47 11 313 100 73 300 290 226 235 243 197 220 221 211 218 224 222 220 219 218 217 216 216 216 212 208 208 207 210 208 193 169 108 84 78 76 73 70 73 77 81 78 72 69 65 62 62 65 65 50 41 38 31 29 28 27 32 38 40 38 38 48 59 65 66 64
265 166 134 127 135 136 125 144 179 146 120 212 226 157 131 129 129 127 111 71 86 230 270 91 110 259 304 258 223 203 193 215 214 209 217 220 220 220 220 219 219 217 216 218 219 216 213 211 212 206 194 183 131 96 81 78 77 75 76 74 74 73 68 65 63 60 59 61 63 57 50 49 42 38 39 42 46 49 47 40 41 56 67 67 66 69
157 83 85 109 120 125 122 157 195 145 121 235 216 135 127 130 130 126 95 80 164 194 353 50 103 137 289 260 227 181 188 222 224 218 219 217 217 218 219 220 220 219 218 218 218 217 216 216 215 208 199 192 160 116 86 85 86 79 78 74 72 71 66 62 60 58 58 59 60 58 54 51 48 49 53 56 56 54 49 42 46 59 66 66 69 75
149 116 145 139 121 154 195 196 171 139 108 264 135 113 117 120 119 108 87 87 114 86 356 302 86 79 270 277 304 162 190 227 228 221 219 213 214 215 216 220 222 222 221 220 220 219 218 217 216 211 204 201 183 142 97 94 96 83 80 77 71 71 68 62 58 58 58 58 57 55 54 55 55 57 59 59 58 57 53 52 57 64 68 72 74 73
11 158 170 147 142 192 221 179 154 130 91 122 103 91 88 82 86 79 88 96 46 54 273 249 139 90 279 279 21 117 203 228 225 219 216 213 212 213 215 218 220 222 221 221 222 222 220 219 217 212 208 210 201 169 149 128 117 104 90 81 72 70 69 64 58 57 56 55 54 52 52 54 57 58 57 56 57 60 60 60 66 71 72 71 67 61
350 112 150 135 152 168 101 74 102 108 119 122 97 86 82 49 42 46 58 86 59 10 275 243 157 118 301 276 196 176 216 219 208 207 211 211 210 210 214 216 217 219 220 219 220 221 220 219 215 214 215 215 211 199 197 186 164 152 137 122 86 65 66 65 59 54 53 51 50 49 47 48 52 55 55 54 55 59 61 60 61 63 60 56 52 48
8 76 140 105 110 116 95 68 64 95 114 109 88 100 87 17 8 18 356 32 68 265 279 260 145 115 243 267 227 224 254 231 192 196 199 200 205 207 210 213 216 218 218 217 217 218 217 214 213 217 220 218 215 214 208 193 186 187 200 224 228 52 56 61 57 48 46 44 43 42 41 40 42 46 50 51 50 52 57 58 53 49 48 47 45 40
19 43 290 66 108 115 102 79 53 43 63 85 104 102 75 31 10 6 328 350 139 239 274 184 142 121 240 250 253 246 255 242 208 201 197 194 197 202 206 210 214 217 216 215 215 216 214 213 215 221 224 220 219 221 212 196 190 195 210 231 237 249 312 12 38 35 32 31 29 30 32 32 33 35 41 45 46 46 48 53 52 47 47 47 42 32
346 321 338 97 123 143 118 112 132 195 146 138 134 121 111 98 54 341 283 313 283 264 300 188 176 277 282 260 246 238 249 245 226 212 203 198 196 199 204 207 210 213 214 214 214 214 214 214 217 224 228 226 225 224 215 200 194 199 212 224 227 234 261 291 324 352 7 10 8 10 14 21 25 26 31 38 42 43 43 48 51 49 48 44 31 17
109 310 250 164 181 173 148 143 160 154 142 159 135 118 139 146 136 241 243 213 242 271 324 333 218 202 233 254 242 251 276 264 228 211 205 203 199 198 199 201 205 210 211 212 214 215 215 216 218 223 229 230 226 219 210 201 198 201 207 217 222 224 246 271 291 311 339 351 345 345 350 360 13 17 22 30 36 38 41 44 47 47 41 27 13 1
106 255 248 265 178 164 169 154 132 109 100 171 113 97 200 188 140 91 195 175 179 190 325 308 237 212 225 263 304 333 340 14 172 178 182 190 193 190 191 196 202 207 209 211 213 215 216 216 218 221 226 224 215 207 203 198 198 199 200 209 218 225 242 261 277 291 310 323 322 326 330 332 350 7 13 20 28 31 35 38 40 36 23 8 358 346
89 272 275 347 44 154 166 152 132 119 135 138 125 191 236 172 119 107 173 42 79 109 285 280 262 294 314 297 327 14 39 72 123 152 164 174 180 183 189 195 201 205 207 210 213 215 216 216 218 219 220 213 200 195 194 192 195 198 198 206 218 228 240 254 269 284 294 300 306 311 313 314 327 349 0 8 18 23 25 28 24 12 359 348 339 333
139 264 301 52 78 351 122 129 89 71 121 120 190 213 205 124 91 104 123 6 41 166 283 308 268 295 339 307 318 13 53 80 125 146 156 166 174 183 191 196 201 206 208 211 214 216 217 218 219 219 217 207 194 189 188 187 192 199 206 215 223 231 241 254 267 279 286 289 293 297 300 306 310 321 338 347 359 10 14 12 358 346 336 328 325 325
119 168 303 345 125 335 71 107 63 356 81 122 170 172 115 130 237 54 104 20 38 319 294 306 297 271 209 229 271 250 189 183 167 157 156 168 178 186 193 198 202 205 207 210 214 217 219 220 222 222 217 208 197 192 189 188 196 205 214 225 232 237 242 252 262 270 276 279 284 289 292 297 300 306 317 328 337 346 352 346 334 327 322 319 319 320
93 116 275 304 209 323 36 86 179 271 328 62 103 79 53 132 163 156 130 163 178 288 282 313 330 280 232 219 194 205 207 183 170 176 179 185 187 190 195 198 201 204 206 211 215 218 220 222 225 225 220 213 203 197 195 195 201 206 215 230 240 244 245 250 258 265 270 274 280 285 287 289 294 301 307 313 321 325 323 318 314 312 312 313 314 314
64 89 217 302 334 53 101 210 187 189 208 104 104 312 326 68 133 166 25 76 132 153 188 291 320 272 252 210 184 209 211 185 181 183 189 194 193 194 198 200 203 206 209 213 216 219 221 223 226 227 223 219 212 207 206 206 207 208 215 231 243 248 250 254 258 264 269 273 278 283 290 293 294 300 304 298 295 302 305 301 300 302 304 305 306 308
106 109 158 287 335 181 228 240 186 175 178 157 170 204 182 140 127 116 324 314 87 123 168 165 270 273 260 205 207 222 210 197 193 183 186 197 198 197 200 204 207 209 212 216 218 221 223 224 226 227 225 221 217 215 214 214 214 215 219 229 241 248 253 257 259 263 269 275 280 286 295 301 297 298 303 294 282 284 290 291 292 296 297 299 300 303
136 106 110 190 228 222 243 272 167 167 151 130 160 189 149 130 121 129 231 266 134 93 134 122 232 272 264 235 240 243 232 218 203 190 188 198 200 200 202 207 210 213 216 218 220 223 225 225 227 227 226 223 221 221 220 220 220 221 224 230 239 248 253 256 260 263 268 273 280 285 288 295 297 294 294 292 281 276 280 284 288 292 294 296 297 299
97 80 85 294 297 297 309 350 28 69 97 110 189 122 133 152 139 147 180 182 143 164 153 93 284 271 275 282 265 244 231 219 208 199 194 198 200 201 203 207 211 214 217 219 222 225 226 226 227 228 228 227 225 226 226 225 225 226 228 231 237 248 255 257 260 263 267 271 277 278 275 279 288 288 285 286 281 275 275 279 283 289 294 294 292 293
176 106 102 77 360 345 345 356 354 356 61 147 232 163 137 116 101 115 143 90 74 215 156 140 250 256 268 310 344 301 185 191 205 202 200 202 202 200 203 208 212 215 217 220 222 225 226 227 227 228 230 229 229 230 230 230 230 230 230 232 237 247 255 257 260 264 266 269 273 275 274 279 283 279 275 276 277 275 274 276 280 287 290 287 286 290
161 138 120 123 127 179 242 273 270 265 239 204 192 141 119 105 117 146 116 62 300 238 148 158 226 262 288 323 9 26 115 169 197 192 199 208 208 205 205 208 212 215 218 221 223 225 227 228 229 229 230 231 231 231 232 233 233 234 234 235 238 246 254 257 259 262 265 268 272 272 274 281 284 279 275 274 274 275 275 277 279 282 281 278 283 294
111 91 127 140 164 183 195 217 225 172 144 237 273 149 128 120 126 119 90 102 207 181 190 221 211 262 299 297 316 307 208 204 206 182 188 203 208 209 209 210 214 217 220 223 225 227 229 231 232 230 230 231 231 231 233 235 237 239 240 241 242 247 255 260 261 262 262 265 269 267 263 271 280 283 281 276 274 273 275 276 274 271 272 278 291 303
95 98 159 144 185 206 192 201 249 89 149 197 203 199 170 131 117 115 149 217 163 118 284 261 198 200 270 259 245 245 225 219 217 194 191 199 205 208 209 210 214 217 220 223 225 228 231 233 234 233 233 233 230 230 233 236 240 244 247 247 246 248 256 262 265 266 264 263 265 262 258 264 272 278 279 276 273 271 271 269 266 265 273 288 302 310
112 127 199 158 246 247 172 184 304 87 137 169 176 206 200 152 150 172 215 204 150 158 253 248 182 203 248 247 231 226 212 205 206 200 197 199 203 205 205 207 211 216 220 223 226 229 233 236 237 235 234 231 229 230 233 236 241 245 250 253 251 252 258 263 267 270 267 265 263 259 257 263 268 271 273 272 269 267 264 261 260 267 284 300 310 314
116 146 216 156 333 353 47 321 234 124 73 345 219 228 205 172 179 197 235 209 174 206 241 205 198 236 247 232 232 235 220 209 204 199 198 200 202 203 204 207 211 215 220 224 228 231 234 237 238 237 233 229 228 229 232 234 238 243 252 259 258 257 260 263 268 271 266 262 262 258 256 263 268 268 266 265 262 257 254 253 261 283 301 309 314 316
93 172 243 99 30 337 354 5 20 83 95 277 304 318 348 157 192 216 225 191 190 251 247 149 197 265 263 236 236 241 199 185 183 191 199 203 205 205 207 210 214 218 224 228 230 233 235 237 238 237 235 231 227 227 230 232 235 243 254 263 267 267 265 262 264 265 259 257 259 256 252 260 264 262 259 256 251 245 246 258 282 301 308 312 315 318
74 98 349 71 60 305 325 6 360 35 79 39 310 302 229 176 203 222 212 189 183 183 166 113 257 268 263 236 200 182 175 176 184 193 197 203 206 208 211 215 218 222 226 229 231 234 235 235 237 238 237 233 228 227 229 230 234 243 251 263 273 273 263 254 255 258 255 254 253 248 249 258 259 254 249 243 237 239 255 280 298 306 309 311 317 322
102 121 114 86 97 274 302 352 356 38 51 349 285 240 202 207 226 244 260 239 201 154 136 185 231 244 247 197 148 165 180 186 200 201 200 204 207 212 218 221 223 224 225 227 230 232 234 234 235 236 235 233 230 228 230 232 236 242 250 263 272 262 242 237 244 252 253 248 243 243 250 256 252 244 238 231 233 250 276 294 301 305 309 313 321 328
81 101 124 135 123 268 291 335 30 42 16 263 237 183 183 204 207 217 243 242 221 190 171 225 244 251 227 188 181 191 195 203 212 211 208 210 211 215 221 224 225 224 223 225 227 230 234 236 236 235 234 233 232 231 231 233 237 243 251 260 257 237 226 231 240 247 246 239 237 244 250 248 241 233 228 228 244 273 288 298 303 306 310 318 329 336
84 81 112 109 86 265 307 22 42 331 241 242 256 227 206 204 186 199 247 257 228 226 246 260 262 248 218 207 202 201 204 212 218 214 212 216 218 218 220 220 221 222 222 223 227 230 234 238 240 238 235 234 233 232 232 232 234 241 249 247 233 222 226 235 241 240 236 233 237 244 243 236 227 222 225 241 269 285 294 301 303 307 315 328 339 343
126 113 109 78 63 251 30 62 125 244 264 282 305 285 190 166 139 168 286 286 234 206 212 230 245 243 222 216 216 217 221 224 226 222 217 218 222 221 220 218 217 221 224 226 230 233 239 247 251 249 243 237 234 232 230 228 229 235 235 225 219 225 233 236 236 231 227 230 235 236 230 223 219 221 238 265 281 289 298 301 303 311 325 339 347 346
124 130 117 83 75 154 109 134 241 295 315 314 312 231 169 165 164 157 231 280 250 205 194 204 226 228 205 204 202 197 201 201 254 241 225 221 223 222 221 222 222 224 230 234 238 243 249 255 259 259 253 244 236 231 227 225 225 224 220 214 215 224 228 226 225 223 223 228 228 224 218 214 218 235 261 279 288 295 298 299 307 322 337 348 351 346
87 129 152 140 280 106 97 14 321 349 310 274 266 260 239 222 200 152 122 292 279 233 204 198 196 185 172 163 158 149 140 112 331 251 227 221 225 224 223 227 229 233 241 244 244 245 248 254 257 258 253 242 232 227 221 219 217 212 210 210 212 214 215 216 218 219 222 223 219 214 210 211 228 256 278 288 291 294 297 303 320 337 348 353 350 343
54 56 107 107 72 105 105 125 221 220 248 247 252 274 305 207 188 117 59 309 285 248 209 196 186 187 178 161 155 146 123 116 247 247 232 223 224 226 228 230 232 236 239 235 233 235 238 244 247 242 233 225 219 212 205 204 203 201 203 206 206 206 209 212 215 218 219 216 211 208 209 220 246 272 285 291 291 292 300 321 340 348 352 352 346 338
49 33 54 94 146 153 123 146 222 235 247 243 246 265 328 145 143 71 28 267 275 283 213 198 194 197 186 167 156 148 150 196 226 253 244 228 226 229 231 234 233 225 214 206 205 211 220 228 225 202 192 198 196 189 184 187 191 194 198 199 199 203 207 211 214 215 213 210 207 207 216 234 259 275 281 286 292 298 316 340 351 353 351 346 338 332
43 29 60 133 152 142 133 199 274 264 247 248 250 209 146 119 84 72 204 239 283 332 237 206 205 201 187 173 169 180 208 217 226 254 255 231 229 228 225 221 212 200 197 198 195 190 186 180 165 158 167 177 178 174 175 181 184 187 192 194 197 204 209 212 213 211 208 207 208 213 227 243 259 268 275 284 295 316 340 352 354 351 346 338 331 329
103 41 87 126 122 130 147 188 302 290 258 217 139 133 140 125 183 209 218 254 306 324 275 218 213 207 193 188 194 206 219 223 228 245 253 231 226 220 207 195 188 186 187 184 178 174 164 154 153 155 161 168 171 171 174 179 182 185 191 197 203 209 212 212 212 210 208 208 212 221 235 248 255 260 268 279 294 329 345 351 351 344 336 328 327 331
177 170 203 195 161 129 61 48 63 290 252 157 124 108 159 187 209 221 255 313 315 319 309 245 223 215 206 205 209 214 221 226 230 240 241 222 214 206 195 189 187 186 184 177 171 170 165 159 158 159 161 166 171 174 175 178 186 192 200 208 212 213 213 212 210 208 208 210 216 227 238 244 248 252 257 271 299 332 339 342 340 332 323 321 326 332
188 174 191 233 181 130 92 172 189 234 221 171 162 174 219 208 223 327 7 338 321 323 326 292 248 230 222 221 219 217 222 232 235 235 226 210 202 195 189 188 188 187 182 176 172 171 170 168 163 160 164 169 171 174 177 182 192 204 213 219 220 217 214 211 209 208 210 213 220 230 238 239 239 241 243 261 302 323 327 327 324 319 314 316 325 329
228 198 163 164 188 171 186 220 233 280 282 205 205 225 246 224 240 260 297 318 318 306 305 317 292 254 239 234 229 224 227 234 238 236 223 208 199 194 191 190 189 187 181 175 174 175 177 176 169 165 169 174 176 178 182 188 199 214 222 225 225 221 216 212 210 210 212 217 225 234 237 233 229 229 234 254 294 309 308 308 310 313 313 314 319 320
249 186 150 154 245 240 250 254 255 285 301 249 226 234 246 257 254 252 268 289 296 283 277 284 290 275 256 244 239 237 237 237 237 235 221 206 198 194 193 190 187 186 183 180 179 180 181 181 178 174 176 180 183 185 190 197 209 222 231 231 227 222 217 214 213 213 214 221 230 233 232 230 225 224 231 248 274 286 289 295 305 313 313 311 313 310
269 159 157 293 10 47 270 264 265 286 296 290 258 247 247 251 251 251 265 276 271 266 265 262 264 272 263 252 250 251 249 242 235 229 219 207 201 197 195 194 191 189 188 186 183 182 184 186 185 182 183 188 192 192 197 205 214 224 234 236 229 222 217 215 215 216 218 224 231 230 227 228 228 229 237 253 264 270 276 286 300 308 309 308 307 303
346 127 183 238 126 171 250 268 302 314 299 292 287 268 259 257 254 252 261 268 257 250 253 258 261 260 261 266 263 257 254 248 240 232 222 211 205 202 199 197 196 193 190 188 187 187 189 191 192 189 190 196 199 200 204 209 216 224 230 233 229 222 218 216 215 217 222 227 230 228 225 227 233 238 247 254 257 262 271 280 289 294 299 302 300 298
133 186 224 164 28 313 285 292 324 339 328 314 306 290 280 277 267 257 256 259 251 244 246 254 258 259 267 274 269 258 257 256 250 242 230 217 209 205 204 203 200 196 192 190 192 194 196 197 199 198 199 203 206 208 211 214 218 223 226 228 227 222 219 216 214 216 223 226 225 226 228 230 235 241 248 250 252 257 265 272 278 282 287 292 292 294
125 266 209 107 21 304 276 299 330 337 290 298 313 318 312 304 287 265 256 255 252 246 246 250 254 257 263 269 267 264 265 265 259 246 234 224 217 212 210 207 201 197 195 195 196 199 202 205 207 206 207 210 213 215 218 220 220 220 222 225 225 222 220 218 216 218 223 226 227 230 234 235 236 238 242 246 250 255 260 264 268 272 278 281 283 287
213 236 185 152 176 240 264 302 327 289 269 297 317 325 323 320 305 278 265 262 258 252 249 251 254 257 262 265 263 264 271 275 267 250 236 230 225 218 214 211 206 201 199 200 201 204 207 210 212 214 215 216 218 221 224 225 221 218 219 222 223 222 221 219 219 222 224 225 228 234 238 238 237 237 239 242 247 253 258 260 263 266 270 275 277 280